Location: New Plymouth
(39.0670°S, 174.0830°E)
Time: 23:56:55
(UTC+13:00)

MetOp-B - Pass Details

Date: 24 January 2019
Orbit: 820 x 820 km, 98.7° (Epoch: 21 February)

Event Time Altitude Azimuth Distance (km) Brightness Sun altitude
Rises 23:16:31 0° 168° (SSE) 3,390 7.9 -23.2°
Reaches altitude 10° 23:18:53 10° 168° (SSE) 2,450 7.1 -23.5°
Maximum altitude 23:24:20 84° 255° (WSW) 839 4.1 -24.1°
Enters shadow 23:25:58 47° 339° (NNW) 1,089 4.5 -24.3°
